Temperature
21 21 21 21 23 21 17 15 15 14 13 10 10 11 12 11 12 10 5 5 6 7 7 8 7 7 7 7 7 7 7 7 7 6 6 7 7 7 6 7 7 6 7 7 8 9 10 10 11
21 21 21 22 24 21 16 15 14 14 11 10 9 10 10 8 6 5 4 6 7 7 7 7 7 7 6 6 7 6 6 6 5 5 5 5 5 6 5 6 6 6 6 6 6 7 8 9 9
21 22 20 21 20 20 16 14 14 11 10 10 9 8 9 7 5 4 5 6 6 7 7 7 7 7 6 6 6 5 5 4 4 4 4 4 4 4 4 5 5 4 5 5 5 6 6 6 7
21 21 19 20 17 15 16 14 12 11 10 9 9 8 6 4 4 4 5 6 7 7 7 7 7 7 6 5 5 5 4 4 4 4 4 4 4 4 4 4 4 3 3 3 4 4 5 5 6
22 21 21 18 15 14 14 12 12 12 11 9 9 9 6 4 4 4 5 6 7 7 7 7 7 7 6 5 5 5 5 4 4 4 4 4 5 5 4 4 4 3 3 3 3 3 3 3 4
20 22 22 19 15 13 12 11 11 12 10 9 9 9 6 4 4 4 5 6 6 7 7 7 6 6 5 5 5 5 5 5 5 5 5 5 5 4 4 4 4 3 3 3 2 2 2 3 3
20 20 19 18 16 14 13 11 12 12 11 9 9 9 6 4 4 4 5 6 6 6 6 6 6 5 5 4 4 4 4 4 4 4 4 4 4 4 4 4 3 3 2 2 2 2 2 2 2
18 20 18 18 17 15 12 10 10 11 10 7 8 9 7 5 4 4 5 5 5 6 6 6 5 5 4 4 4 4 4 4 4 4 3 3 3 3 3 3 3 2 2 2 2 1 1 2 2
18 21 19 18 17 15 11 10 8 8 8 7 7 8 6 5 4 4 4 4 4 5 5 5 5 4 4 4 4 4 3 3 3 3 3 3 3 2 2 2 2 2 2 1 1 1 1 1 2
19 20 17 15 15 14 11 11 9 8 8 7 6 5 5 4 4 4 3 3 4 4 4 5 4 4 3 3 3 3 3 3 2 2 2 2 1 1 1 1 1 1 1 1 0 0 0 0 0
15 15 13 11 11 12 10 10 9 10 10 9 8 5 4 4 4 4 3 3 4 4 4 4 3 3 3 2 2 2 2 1 1 1 1 0 0 -0 -0 -1 -1 -1 -1 -1 -1 -1 -1 -1 -2
13 11 11 11 9 10 10 9 9 10 11 9 8 6 5 4 4 4 3 3 3 3 4 3 3 2 2 2 1 1 1 0 -0 -0 -1 -1 -1 -2 -2 -3 -3 -4 -4 -4 -3 -3 -4 -3 -3
13 11 10 9 9 9 9 9 10 9 7 7 6 5 5 5 4 3 3 3 3 3 3 3 2 2 2 1 1 0 0 -0 -1 -1 -2 -2 -3 -4 -4 -5 -5 -6 -6 -6 -6 -6 -5 -5 -5
12 11 10 10 10 9 10 9 9 9 7 7 6 5 5 5 4 3 3 3 3 3 3 2 1 1 1 0 0 -0 -1 -1 -2 -2 -3 -4 -5 -6 -6 -6 -7 -7 -7 -7 -7 -7 -7 -7 -6
12 13 12 11 10 9 10 11 10 9 7 7 6 6 5 4 4 3 3 3 3 3 2 1 1 1 0 0 -0 -1 -1 -2 -2 -3 -4 -5 -6 -6 -7 -7 -8 -8 -8 -8 -9 -8 -8 -8 -8
15 16 17 13 11 9 11 16 13 8 7 7 7 6 5 4 4 3 3 3 3 2 2 1 1 1 0 0 -0 -1 -1 -2 -3 -4 -5 -6 -6 -7 -8 -8 -9 -9 -9 -10 -9 -9 -9 -9 -9
18 19 19 15 11 11 11 15 12 8 7 8 7 7 6 5 4 3 3 2 2 2 1 1 1 0 0 -0 -1 -1 -2 -3 -3 -4 -5 -6 -6 -7 -9 -9 -10 -10 -10 -10 -10 -10 -10 -10 -10
19 19 19 18 13 12 12 14 13 8 7 8 8 7 6 6 5 3 2 2 2 2 1 1 0 -0 -0 -1 -1 -2 -2 -3 -4 -5 -6 -7 -8 -9 -9 -10 -10 -11 -11 -11 -11 -11 -11 -11 -11
18 18 18 17 13 12 13 14 14 10 8 8 9 8 7 6 5 3 2 2 2 1 1 0 -0 -1 -1 -1 -2 -2 -3 -4 -5 -6 -7 -8 -9 -9 -10 -11 -11 -11 -11 -11 -11 -11 -11 -11 -11
17 18 18 16 12 12 13 14 15 13 9 9 9 8 8 7 5 3 2 2 1 1 1 0 -1 -2 -2 -2 -2 -3 -4 -5 -6 -7 -8 -9 -9 -10 -11 -11 -11 -11 -12 -12 -12 -12 -12 -12 -11
17 17 17 16 14 12 12 17 14 11 9 8 8 8 8 7 5 3 2 2 1 1 1 -0 -1 -2 -2 -2 -3 -4 -5 -6 -7 -7 -8 -9 -10 -10 -11 -11 -12 -12 -12 -12 -12 -12 -12 -12 -12
18 15 14 14 15 16 14 18 18 14 12 10 8 8 7 6 5 4 2 1 1 1 1 -0 -1 -2 -2 -3 -4 -5 -5 -7 -7 -8 -9 -10 -10 -11 -11 -11 -12 -12 -12 -12 -12 -12 -12 -12 -12
15 13 13 13 14 16 15 17 20 13 16 15 12 9 8 6 5 3 2 2 1 1 0 -1 -2 -2 -3 -3 -4 -5 -6 -7 -8 -9 -9 -10 -10 -11 -11 -11 -11 -12 -12 -12 -12 -12 -12 -12 -13
13 13 13 13 15 18 16 17 19 18 17 16 12 9 8 6 4 2 2 2 2 1 -0 -1 -2 -2 -3 -3 -4 -5 -6 -7 -8 -9 -10 -10 -11 -11 -11 -11 -11 -11 -11 -12 -12 -12 -12 -12 -12
15 18 19 19 19 19 14 15 18 18 15 13 12 10 7 5 3 2 2 2 1 1 -0 -1 -2 -3 -3 -4 -5 -6 -7 -8 -9 -10 -10 -11 -11 -11 -11 -11 -11 -11 -11 -11 -11 -11 -12 -12 -12
15 17 18 18 18 18 15 16 19 15 11 9 8 7 5 4 3 2 2 1 1 0 -1 -1 -2 -3 -3 -4 -5 -6 -7 -8 -9 -10 -11 -11 -11 -11 -11 -11 -11 -11 -11 -11 -11 -11 -11 -11 -11
16 16 14 16 16 15 18 18 18 13 12 10 8 6 5 4 2 2 1 1 1 0 -1 -1 -2 -3 -3 -4 -5 -6 -7 -8 -9 -10 -11 -11 -11 -12 -11 -11 -11 -11 -11 -11 -11 -11 -11 -11 -11
14 15 15 16 16 17 18 18 18 19 18 14 11 8 6 3 2 1 1 1 1 0 -1 -1 -2 -3 -4 -4 -5 -6 -7 -8 -9 -10 -11 -11 -11 -12 -12 -11 -11 -11 -11 -11 -11 -11 -11 -11 -10
13 13 14 15 15 16 17 19 19 19 17 15 14 10 7 4 3 2 2 1 1 -0 -1 -2 -2 -3 -4 -5 -5 -6 -7 -8 -9 -10 -10 -11 -11 -12 -12 -12 -12 -11 -11 -11 -11 -11 -11 -11 -11
14 15 15 16 16 14 15 17 18 16 14 12 12 9 7 4 3 2 2 1 1 -0 -1 -2 -3 -3 -4 -5 -5 -6 -7 -8 -9 -9 -10 -11 -11 -12 -12 -12 -12 -11 -11 -11 -11 -11 -11 -11 -11
Wind_Speed
6 4 0 1 4 8 7 5 5 7 5 5 7 7 7 7 5 6 4 8 11 13 15 18 21 21 21 23 23 24 25 25 26 27 27 28 28 28 28 28 28 27 27 27 27 28 28 28 27
5 2 1 2 2 6 6 5 8 7 9 9 6 6 7 7 7 6 3 8 11 13 14 17 20 20 21 22 23 23 24 24 25 26 26 27 28 28 28 28 28 27 27 27 27 27 27 28 28
6 5 5 5 6 6 8 9 11 12 9 4 5 5 5 7 6 4 5 7 9 12 14 17 20 20 20 21 22 22 23 23 24 25 25 26 26 27 27 27 27 27 27 27 27 27 27 27 27
2 4 6 7 11 6 8 13 13 12 6 4 6 8 5 4 3 6 6 7 9 13 15 17 20 20 20 21 21 22 22 23 24 24 25 25 26 27 26 27 27 26 26 26 27 27 27 27 27
3 4 6 8 8 7 9 11 11 7 7 7 7 7 7 6 8 8 6 7 10 12 14 16 20 20 19 20 21 21 22 22 23 24 25 26 27 27 27 27 27 27 27 27 27 27 27 26 27
4 4 5 8 8 8 8 8 8 7 7 8 8 9 7 9 8 6 6 7 9 11 13 14 17 18 18 19 21 20 21 22 23 24 26 26 26 26 26 27 27 27 27 27 27 27 27 27 27
4 5 7 10 10 8 7 7 8 7 8 8 8 8 9 11 8 6 5 5 7 10 13 14 15 16 15 16 19 19 20 21 21 22 24 25 24 25 25 25 27 27 27 27 27 28 28 27 27
4 7 8 8 10 8 9 7 5 6 7 6 6 6 8 14 10 7 4 4 6 9 11 14 14 15 14 13 15 16 17 19 19 20 23 24 22 23 24 24 27 27 27 27 27 27 28 27 26
1 5 6 7 8 8 11 7 5 3 7 5 4 2 7 16 12 7 3 2 5 8 10 12 13 14 14 13 13 14 15 17 19 19 22 22 20 20 21 23 25 26 26 26 26 27 27 26 22
5 5 5 3 3 9 13 8 10 8 8 7 7 7 13 15 11 7 3 3 6 8 9 10 12 13 13 12 11 12 13 15 16 17 19 18 18 18 20 22 22 23 24 24 23 26 23 20 18
7 7 7 5 6 11 12 10 10 9 8 9 13 17 18 14 11 7 4 2 5 6 7 8 10 12 12 11 11 10 11 12 13 15 16 17 16 16 16 17 18 19 20 19 21 20 18 19 18
8 8 7 8 7 9 10 10 8 11 4 6 13 19 18 15 11 8 5 3 3 6 8 8 9 11 12 11 10 10 10 11 12 13 15 15 15 15 16 15 17 17 16 18 18 17 19 20 20
7 7 6 8 8 8 9 8 6 9 4 9 15 17 16 14 11 8 5 3 2 5 7 8 7 10 11 11 10 10 11 11 13 12 13 16 15 15 16 16 16 17 17 17 18 18 20 20 19
9 11 10 7 7 6 7 6 5 9 10 14 17 17 15 13 11 9 8 4 2 4 6 7 7 9 11 10 11 10 11 12 12 12 14 15 15 15 16 17 17 17 17 18 19 20 19 18 18
9 9 7 5 4 4 4 7 9 9 14 16 17 16 15 13 12 11 8 5 2 2 4 5 7 9 11 11 12 10 11 12 12 12 13 15 16 17 17 16 16 17 18 20 19 20 18 16 17
5 4 3 5 5 4 5 7 5 13 17 17 17 16 15 14 14 11 9 6 3 0 3 4 7 9 11 11 11 10 11 12 11 12 13 15 17 17 17 16 17 18 19 18 17 15 15 15 16
3 3 2 4 6 5 7 8 5 12 16 17 17 16 15 15 14 12 10 7 5 1 2 4 7 9 11 12 11 11 11 11 11 11 13 16 17 18 18 16 17 19 18 17 16 14 15 17 17
1 2 3 3 5 8 10 13 6 12 16 17 17 17 16 16 15 13 11 9 6 2 2 4 6 9 11 10 10 10 10 11 11 11 13 17 17 18 18 16 18 18 16 14 15 17 17 16 17
1 3 6 2 3 6 12 16 13 12 16 18 18 17 17 17 14 12 12 10 7 4 2 4 6 8 9 8 8 9 10 9 10 11 14 15 17 18 17 16 17 17 14 16 17 17 18 17 16
2 5 5 2 2 5 11 17 12 10 17 18 18 18 18 16 14 13 13 11 8 4 1 3 5 7 8 8 8 8 10 9 10 11 13 15 17 17 16 17 17 17 15 17 17 17 16 16 15
3 4 6 7 3 4 9 6 2 2 8 13 16 17 17 17 16 15 14 12 8 4 1 3 5 6 8 9 8 9 8 8 8 10 11 15 17 17 17 18 18 19 17 16 18 18 19 16 16
2 1 4 5 6 3 4 5 1 1 5 9 14 16 17 16 16 15 14 12 8 4 1 1 4 6 7 8 8 11 9 10 11 10 11 16 16 17 17 18 19 19 18 17 18 17 17 18 16
2 1 3 3 4 4 1 5 2 1 2 3 6 12 14 14 14 14 13 11 7 5 2 1 3 5 6 8 9 10 10 10 10 11 13 14 15 16 17 18 19 19 17 18 18 18 17 15 15
1 2 3 3 3 2 1 4 4 0 1 2 2 4 9 12 13 13 12 10 7 5 2 1 3 4 6 7 8 10 11 12 13 13 13 12 12 14 17 19 19 19 18 18 18 17 17 15 16
2 5 4 3 3 3 1 5 7 2 4 6 6 5 5 10 13 14 13 11 8 5 3 2 3 4 6 7 8 9 10 12 12 13 13 14 12 13 16 19 19 19 19 20 18 16 15 15 15
1 3 4 5 6 6 2 5 5 2 3 5 6 6 6 11 13 14 13 10 8 6 3 2 3 4 6 7 8 8 9 9 9 12 12 13 12 13 18 20 19 20 20 19 17 14 14 13 13
1 2 2 3 4 6 6 5 8 4 7 8 8 8 9 12 14 14 12 10 8 6 4 2 2 4 6 7 8 8 9 10 11 12 12 11 13 15 18 19 18 19 19 18 17 13 14 13 12
2 4 3 2 4 6 8 7 4 6 6 5 9 11 11 13 14 14 12 10 8 6 4 2 2 4 5 7 7 7 9 10 11 11 12 13 15 16 17 17 17 17 17 17 15 15 15 15 13
5 4 3 2 3 4 7 7 5 9 7 8 9 9 11 15 16 14 12 10 8 6 5 3 2 3 5 6 7 8 9 10 11 10 12 13 14 16 15 16 16 16 16 16 14 15 15 15 14
3 5 6 4 4 4 5 8 4 8 7 9 10 8 10 14 15 14 12 11 9 7 6 4 2 3 5 6 7 8 9 9 10 11 12 13 14 15 15 16 15 15 15 15 14 14 14 14 14
Wind_Direction
100 109 196 229 89 74 83 85 111 123 98 87 76 79 83 64 47 93 89 11 359 356 354 355 7 9 11 14 14 14 14 15 14 13 13 11 9 8 7 6 4 3 1 359 357 355 353 352 352
82 92 41 34 97 109 100 123 127 111 120 118 92 90 92 87 76 92 71 17 8 6 2 2 8 10 12 14 14 14 14 15 14 13 12 10 8 7 6 4 2 1 360 358 356 353 351 350 348
85 61 56 64 78 102 126 138 127 120 129 132 110 77 84 102 101 92 57 25 17 17 11 8 11 12 13 15 14 15 14 15 14 13 11 10 8 5 4 3 1 360 358 356 354 352 350 348 346
98 75 68 70 87 78 122 139 136 136 137 129 134 115 101 79 97 97 75 37 26 23 17 14 14 15 16 17 16 16 15 14 12 10 9 7 5 3 2 1 358 357 356 354 352 350 348 346 343
69 83 82 83 89 110 122 137 151 149 145 142 145 127 119 115 114 106 79 44 30 24 19 17 17 18 18 18 17 15 14 13 10 7 5 3 1 359 357 357 354 353 352 351 349 347 345 343 341
80 78 107 120 120 133 145 160 167 155 144 147 150 133 129 143 139 113 81 52 35 25 20 20 19 19 18 17 16 14 13 11 8 4 1 359 357 355 353 353 351 349 348 346 345 343 341 339 338
83 80 104 128 138 156 157 166 182 163 154 154 153 140 142 163 148 130 95 57 38 27 24 21 18 15 12 13 14 12 12 8 5 1 358 355 353 351 350 350 347 345 344 342 341 339 337 335 333
77 100 111 136 150 155 150 147 152 167 143 136 170 166 167 168 156 147 112 57 38 30 26 20 16 12 5 5 10 9 9 6 1 359 357 353 350 349 347 346 344 342 340 339 336 335 333 332 328
44 103 133 150 162 155 158 155 141 124 139 153 182 175 140 148 156 161 150 79 43 33 27 19 12 7 1 358 360 2 3 3 0 358 356 353 349 346 343 341 339 338 336 335 332 332 330 328 323
29 100 112 105 141 156 164 170 158 164 172 177 172 148 144 152 166 171 154 68 37 29 23 18 10 4 359 356 355 358 360 359 358 355 352 348 343 339 337 334 334 333 332 331 330 329 327 327 323
55 86 111 103 115 146 156 163 170 182 196 201 186 165 161 169 176 178 163 84 45 31 24 17 9 1 358 354 353 355 353 352 351 351 348 342 339 335 334 332 331 330 329 330 327 326 326 323 319
86 82 103 120 129 150 160 162 184 204 226 192 176 164 168 178 184 184 173 125 62 34 24 14 4 359 357 354 352 353 351 348 346 343 344 343 337 333 332 327 325 324 324 323 322 319 318 316 313
88 109 98 113 126 140 154 179 197 208 202 165 159 167 179 186 186 180 173 156 74 36 21 10 355 357 355 353 350 351 350 346 341 339 341 340 333 329 327 323 321 319 319 319 318 315 315 312 310
107 115 120 126 131 153 174 191 220 210 171 164 169 180 189 193 191 187 190 183 98 37 17 3 353 356 353 352 350 348 346 342 338 338 337 336 331 326 323 320 318 317 317 317 313 310 310 308 308
120 117 130 153 160 162 196 226 224 184 173 177 184 191 197 200 198 201 196 183 131 46 8 359 349 351 349 348 348 345 344 341 336 334 333 334 331 327 324 319 318 317 317 315 311 310 308 307 306
143 164 194 170 179 170 225 268 183 171 180 190 196 201 203 206 208 206 194 183 161 105 352 351 346 344 346 345 343 343 342 340 335 333 332 335 333 331 326 321 318 318 317 314 312 310 310 308 307
190 237 265 175 192 191 229 265 154 179 193 203 206 209 210 210 211 205 196 188 181 197 336 340 347 343 342 339 338 339 337 335 334 334 336 337 334 332 328 321 318 320 317 314 311 310 309 307 306
182 275 286 283 181 212 239 257 226 194 206 216 216 217 217 217 214 205 197 190 186 199 307 338 344 343 340 338 337 336 336 336 335 335 335 335 332 331 328 321 321 320 316 314 313 311 307 304 304
331 288 300 320 152 237 259 269 264 215 212 223 225 223 223 224 218 201 196 192 194 206 287 340 340 344 344 342 341 337 335 332 331 331 330 329 330 329 326 322 320 318 314 312 309 308 306 305 305
255 286 302 293 180 260 293 286 276 233 219 225 230 229 228 225 213 201 196 195 201 210 283 332 341 342 345 342 333 326 323 321 321 325 327 328 328 325 322 319 317 314 312 309 308 308 305 303 303
258 286 311 313 305 238 302 289 168 189 230 235 239 240 235 227 218 204 197 196 199 204 275 337 337 336 341 339 331 327 323 324 331 333 329 328 325 321 319 317 316 313 312 308 307 306 302 301 301
293 303 292 294 299 311 342 320 137 189 250 239 236 234 233 227 220 206 195 193 191 178 154 320 330 333 341 340 337 337 332 331 332 329 323 323 322 320 319 318 317 314 312 308 307 303 299 297 296
313 310 266 261 277 284 269 297 314 114 269 240 238 234 231 223 213 200 190 182 170 158 164 304 322 330 341 342 339 334 330 328 325 326 324 325 324 322 322 324 322 320 316 312 309 304 299 294 291
239 220 184 201 242 280 71 312 299 133 268 274 262 254 229 214 200 188 174 165 161 161 178 280 313 329 342 342 339 335 331 329 327 329 327 328 325 324 327 329 327 325 321 317 315 308 302 296 290
261 309 314 310 312 346 75 276 268 305 266 271 278 278 228 200 188 178 172 173 174 181 196 257 305 332 344 340 336 333 329 327 327 328 326 327 325 326 328 330 328 327 326 322 319 313 307 300 294
38 345 357 323 318 318 262 264 281 258 256 258 262 263 219 196 189 183 179 177 178 184 199 247 308 335 340 335 332 327 327 325 322 323 322 322 322 323 324 326 326 327 329 328 327 321 316 306 297
144 107 28 277 285 284 277 276 290 217 248 244 243 235 216 199 191 186 179 178 180 185 197 240 307 330 332 328 324 323 328 325 321 321 320 321 321 322 323 325 327 329 331 332 332 330 329 322 310
10 140 162 243 306 301 294 280 264 295 297 245 239 233 219 200 192 187 181 180 181 183 192 219 290 320 321 319 321 319 322 322 319 318 321 322 322 324 324 327 329 331 332 332 331 333 337 336 333
159 160 172 179 253 274 298 289 211 262 286 276 271 245 217 199 192 187 182 179 179 183 196 214 265 303 311 315 317 318 321 320 319 318 320 322 322 324 326 327 328 330 331 331 331 335 336 335 336
226 203 188 220 219 226 265 272 217 241 259 260 268 261 222 201 191 185 180 178 184 192 199 211 247 287 305 309 312 316 318 320 320 321 321 321 323 325 326 327 327 328 329 327 326 331 333 333 333
Height
1556 1556 1557 1558 1560 1569 1591 1604 1605 1610 1614 1619 1619 1619 1619 1622 1623 1632 1635 1630 1628 1626 1624 1621 1618 1615 1612 1608 1604 1600 1597 1593 1589 1585 1581 1578 1574 1571 1568 1564 1561 1558 1555 1552 1550 1547 1545 1542 1539
1557 1557 1559 1560 1559 1574 1599 1605 1608 1612 1617 1620 1621 1622 1622 1626 1629 1632 1631 1629 1627 1626 1623 1620 1617 1614 1611 1607 1603 1599 1596 1592 1588 1584 1580 1577 1573 1569 1566 1563 1559 1556 1553 1550 1547 1544 1541 1539 1536
1558 1558 1561 1564 1571 1579 1598 1606 1611 1616 1619 1620 1622 1624 1625 1628 1630 1631 1630 1628 1627 1625 1622 1620 1616 1613 1610 1606 1602 1598 1594 1591 1587 1583 1579 1575 1572 1568 1564 1561 1558 1554 1551 1548 1545 1542 1539 1536 1533
1559 1560 1565 1571 1586 1599 1599 1607 1613 1617 1620 1621 1622 1625 1628 1629 1630 1630 1628 1628 1626 1625 1622 1619 1616 1612 1608 1604 1601 1597 1593 1590 1586 1582 1579 1575 1571 1567 1563 1559 1556 1552 1549 1545 1542 1539 1536 1532 1529
1560 1562 1567 1583 1595 1604 1606 1610 1614 1615 1618 1621 1622 1624 1628 1629 1628 1628 1628 1627 1626 1624 1621 1618 1615 1611 1607 1603 1600 1596 1593 1589 1585 1582 1578 1574 1570 1566 1562 1558 1554 1550 1546 1542 1539 1535 1532 1529 1526
1562 1562 1568 1584 1597 1606 1610 1613 1614 1615 1618 1621 1623 1624 1628 1628 1628 1628 1627 1626 1625 1623 1620 1617 1613 1610 1606 1602 1599 1596 1592 1588 1585 1581 1577 1573 1568 1564 1560 1556 1552 1548 1544 1540 1535 1531 1528 1525 1522
1564 1567 1576 1586 1596 1604 1610 1613 1614 1615 1618 1620 1622 1624 1627 1627 1627 1627 1626 1625 1624 1622 1619 1616 1612 1608 1604 1601 1598 1595 1591 1587 1583 1579 1575 1571 1567 1563 1558 1554 1550 1545 1541 1537 1532 1528 1524 1520 1517
1566 1572 1583 1588 1593 1601 1610 1613 1615 1616 1618 1620 1622 1623 1624 1626 1625 1625 1625 1624 1623 1621 1618 1615 1611 1607 1603 1599 1596 1593 1589 1585 1581 1577 1573 1569 1565 1561 1556 1551 1547 1542 1538 1533 1528 1524 1519 1515 1512
1569 1572 1582 1589 1592 1600 1609 1612 1615 1616 1618 1619 1620 1622 1623 1623 1624 1625 1625 1624 1622 1620 1617 1613 1609 1605 1601 1598 1595 1591 1588 1584 1580 1576 1571 1567 1562 1558 1553 1548 1543 1539 1534 1529 1525 1520 1515 1511 1507
1572 1575 1588 1595 1596 1601 1607 1610 1613 1615 1617 1618 1619 1620 1621 1621 1623 1624 1625 1624 1622 1619 1615 1611 1607 1603 1600 1596 1593 1590 1586 1582 1578 1573 1569 1564 1559 1554 1549 1545 1540 1535 1530 1525 1520 1516 1511 1506 1502
1581 1588 1597 1600 1601 1603 1607 1610 1612 1613 1613 1613 1615 1616 1618 1620 1622 1623 1623 1622 1620 1617 1614 1610 1606 1601 1598 1594 1591 1587 1583 1578 1574 1569 1565 1560 1555 1550 1545 1540 1535 1530 1525 1520 1515 1511 1506 1502 1497
1588 1597 1599 1602 1604 1605 1607 1609 1611 1610 1610 1610 1612 1614 1616 1619 1621 1621 1621 1620 1618 1615 1612 1608 1604 1599 1596 1592 1588 1584 1580 1575 1571 1566 1561 1556 1551 1546 1541 1535 1530 1525 1520 1515 1510 1505 1501 1497 1493
1591 1600 1602 1604 1605 1606 1608 1608 1608 1608 1608 1608 1611 1613 1616 1618 1619 1619 1618 1617 1615 1613 1610 1606 1601 1597 1594 1590 1586 1582 1578 1573 1568 1563 1558 1553 1547 1542 1537 1532 1526 1521 1516 1511 1506 1501 1496 1491 1487
1596 1599 1603 1605 1606 1607 1608 1608 1608 1605 1606 1608 1610 1612 1614 1616 1616 1616 1615 1615 1613 1611 1608 1604 1599 1595 1592 1588 1584 1580 1576 1571 1566 1561 1555 1550 1544 1538 1533 1528 1523 1518 1512 1506 1501 1496 1490 1485 1481
1598 1600 1603 1605 1606 1607 1608 1605 1603 1602 1605 1607 1609 1611 1613 1613 1613 1613 1613 1612 1611 1608 1605 1601 1597 1594 1590 1586 1582 1578 1573 1568 1563 1558 1552 1546 1541 1535 1530 1524 1519 1514 1508 1502 1496 1491 1486 1480 1475
1596 1594 1593 1601 1605 1607 1609 1592 1596 1600 1603 1605 1607 1609 1610 1610 1610 1611 1610 1609 1608 1605 1602 1599 1595 1592 1588 1584 1580 1576 1571 1566 1560 1554 1549 1543 1537 1532 1526 1521 1515 1509 1504 1498 1492 1487 1481 1475 1470
1589 1585 1586 1595 1603 1604 1604 1591 1596 1599 1601 1602 1604 1605 1606 1607 1607 1607 1606 1605 1604 1602 1599 1596 1593 1589 1586 1582 1578 1573 1568 1563 1557 1552 1546 1540 1534 1528 1523 1517 1511 1506 1500 1494 1489 1483 1478 1471 1465
1585 1584 1585 1587 1597 1601 1598 1590 1592 1596 1598 1599 1600 1601 1602 1603 1603 1603 1603 1602 1601 1599 1597 1594 1590 1587 1583 1580 1576 1571 1566 1561 1555 1549 1543 1537 1531 1525 1519 1513 1508 1502 1496 1491 1486 1480 1474 1468 1462
1588 1587 1585 1588 1597 1598 1590 1586 1586 1591 1593 1594 1595 1596 1597 1598 1600 1599 1598 1598 1597 1596 1594 1591 1588 1584 1580 1576 1572 1568 1563 1557 1551 1546 1540 1534 1528 1522 1516 1510 1505 1499 1493 1487 1481 1476 1470 1464 1458
1590 1588 1585 1589 1597 1596 1587 1580 1577 1581 1585 1587 1589 1590 1591 1594 1595 1594 1594 1594 1594 1593 1591 1588 1585 1581 1577 1573 1569 1564 1558 1553 1548 1542 1537 1531 1525 1519 1513 1507 1502 1496 1489 1483 1478 1472 1466 1460 1455
1589 1588 1588 1591 1592 1595 1591 1569 1574 1580 1583 1584 1584 1585 1586 1588 1589 1589 1589 1590 1591 1590 1588 1585 1581 1578 1574 1570 1566 1561 1556 1551 1546 1540 1534 1528 1522 1516 1510 1504 1498 1492 1486 1479 1474 1468 1462 1455 1451
1587 1592 1593 1593 1589 1581 1590 1571 1563 1573 1577 1578 1579 1579 1580 1582 1584 1585 1586 1587 1587 1586 1585 1582 1578 1575 1571 1567 1563 1558 1553 1548 1543 1536 1530 1525 1519 1513 1507 1501 1495 1489 1483 1476 1469 1463 1457 1451 1445
1590 1594 1593 1592 1589 1584 1585 1576 1560 1573 1568 1570 1573 1574 1575 1577 1579 1581 1582 1583 1583 1583 1581 1578 1575 1572 1569 1565 1560 1555 1550 1545 1539 1533 1528 1522 1517 1511 1505 1499 1492 1486 1479 1472 1465 1458 1452 1447 1441
1593 1592 1592 1591 1585 1576 1581 1578 1563 1561 1564 1567 1570 1571 1571 1573 1574 1576 1577 1579 1580 1579 1578 1575 1572 1569 1566 1562 1558 1553 1548 1542 1536 1531 1525 1519 1513 1508 1502 1496 1490 1483 1476 1469 1462 1454 1448 1442 1437
1590 1583 1576 1573 1572 1571 1587 1582 1565 1561 1566 1567 1568 1569 1568 1569 1570 1571 1573 1575 1576 1576 1574 1572 1570 1567 1564 1560 1555 1550 1545 1539 1534 1528 1522 1516 1510 1505 1499 1493 1487 1480 1474 1466 1459 1452 1445 1438 1433
1589 1586 1586 1589 1580 1574 1581 1575 1558 1563 1565 1566 1565 1565 1565 1565 1566 1567 1569 1571 1572 1572 1570 1569 1567 1564 1561 1557 1552 1547 1542 1536 1531 1525 1520 1514 1508 1502 1496 1490 1484 1478 1472 1465 1458 1450 1443 1436 1430
1588 1588 1593 1589 1589 1589 1570 1565 1558 1561 1562 1562 1562 1561 1561 1561 1562 1563 1565 1567 1568 1568 1567 1565 1564 1561 1558 1553 1549 1544 1539 1534 1528 1523 1517 1511 1506 1500 1494 1488 1482 1476 1470 1463 1457 1450 1443 1436 1429
1592 1590 1591 1589 1589 1583 1567 1563 1558 1549 1550 1555 1556 1556 1555 1556 1557 1559 1560 1562 1563 1563 1563 1561 1560 1558 1554 1550 1546 1541 1536 1531 1525 1520 1515 1509 1503 1497 1491 1485 1480 1474 1468 1462 1456 1450 1443 1436 1429
1592 1593 1590 1589 1589 1586 1576 1558 1547 1546 1547 1549 1550 1550 1550 1550 1551 1553 1556 1558 1559 1559 1558 1558 1556 1554 1551 1547 1543 1538 1533 1528 1523 1517 1512 1506 1500 1495 1489 1483 1477 1471 1465 1460 1454 1448 1441 1435 1429
1586 1584 1585 1584 1584 1589 1583 1561 1542 1545 1546 1547 1546 1546 1545 1545 1547 1549 1551 1553 1554 1554 1554 1554 1553 1551 1548 1544 1540 1536 1531 1525 1520 1515 1509 1503 1498 1492 1486 1480 1475 1469 1463 1457 1452 1446 1440 1433 1427